Date String (YYYY-MM-DD hh:mm:ss) UTC,Instrument flags,Ambient pressure (hPa),Sample flow (lpm),Bypass flow (lpm),Sample temperature (°C),Ambient temperature (°C),ASC tube jacket temperature (°C),LED temperature (°C),Box temperature (°C),Sample RH (%),Span deviation,Mass concentration (μg/m³),Mass concentration (μg/m³),Mass concentration (μg/m³)
DateTimeUTC,F1_M11,P_M11,Q1_M11,Q2_M11,T1_M11,T2_M11,T3_M11,T4_M11,T5_M11,U1_M11,ZSPAN_M11,X0_M11,X2_M11,X1_M11
2021-10-13 22:00:00,,0817.3,5.00,0.00,25.7,25.0,00.0,34.9,27.6,11.1,0000.0,0004.23,0001.41,0000.85
2021-10-13 22:01:00,,0817.4,5.00,0.00,25.7,25.0,00.0,34.9,27.6,11.1,0000.0,0003.27,0001.40,0000.86
2021-10-13 22:02:00,,0817.3,5.00,0.00,25.8,25.0,00.0,34.9,27.6,11.2,0000.0,0003.36,0001.44,0000.87
2021-10-13 22:03:00,,0817.3,5.00,0.00,25.8,25.0,00.0,34.9,27.6,11.1,0000.0,0003.47,0001.45,0000.87
2021-10-13 22:04:00,,0817.3,5.00,0.00,25.8,25.0,00.0,34.9,27.7,11.0,0000.0,0003.92,0001.44,0000.87
2021-10-13 22:05:00,,0817.4,5.00,0.00,25.8,25.0,00.0,34.9,27.7,10.9,0000.0,0004.36,0001.46,0000.88
2021-10-13 22:06:00,,0817.4,5.01,0.00,25.8,25.0,00.0,34.9,27.6,10.8,0000.0,0004.18,0001.42,0000.89
2021-10-13 22:07:00,,0817.4,5.01,0.00,25.8,25.0,00.0,34.9,27.7,10.8,0000.0,0004.03,0001.38,0000.89
2021-10-13 22:08:00,,0817.4,5.01,0.00,25.8,25.0,00.0,34.9,27.7,10.8,0000.0,0003.56,0001.36,0000.90
2021-10-13 22:09:00,,0817.4,5.00,0.00,25.8,25.0,00.0,34.9,27.7,10.8,0000.0,0003.34,0001.31,0000.91
2021-10-13 22:10:00,,0817.5,4.99,0.00,25.8,25.0,00.0,34.9,27.7,10.9,0000.0,0003.72,0001.36,0000.92
2021-10-13 22:11:00,,0817.4,5.00,0.00,25.8,25.0,00.0,34.9,27.7,10.9,0000.0,0003.93,0001.39,0000.95
2021-10-13 22:12:00,,0817.5,5.01,0.00,25.8,25.0,00.0,34.9,27.7,10.7,0000.0,0004.09,0001.42,0000.96
2021-10-13 22:13:00,,0817.6,5.00,0.00,25.8,25.1,00.0,34.9,27.7,10.8,0000.0,0004.17,0001.47,0000.97
2021-10-13 22:14:00,,0817.6,5.00,0.00,25.8,25.0,00.0,34.9,27.7,10.7,0000.0,0004.15,0001.47,0000.98
2021-10-13 22:15:00,,0817.6,5.00,0.00,25.9,25.0,00.0,34.9,27.7,10.8,0000.0,0003.85,0001.50,0000.99
2021-10-13 22:16:00,,0817.6,5.01,0.00,25.9,25.1,00.0,35.0,27.7,10.8,0000.0,0003.01,0001.49,0000.99
2021-10-13 22:17:00,,0817.6,5.00,0.00,25.9,25.1,00.0,35.0,27.8,10.8,0000.0,0002.96,0001.48,0000.99
2021-10-13 22:18:00,,0817.6,5.00,0.00,25.9,25.1,00.0,35.0,27.8,10.7,0000.0,0003.03,0001.52,0001.00
2021-10-13 22:19:00,,0817.6,4.99,0.00,25.9,25.1,00.0,35.0,27.8,10.8,0000.0,0003.35,0001.53,0001.01
2021-10-13 22:20:00,,0817.5,5.00,0.00,25.9,25.1,00.0,35.0,27.8,10.6,0000.0,0003.93,0001.56,0001.02
2021-10-13 22:21:00,,0817.5,5.01,0.00,25.9,25.1,00.0,35.0,27.8,10.5,0000.0,0003.66,0001.52,0001.02
2021-10-13 22:22:00,,0817.5,4.99,0.00,25.9,25.1,00.0,35.0,27.8,10.5,0000.0,0003.38,0001.49,0001.01
2021-10-13 22:23:00,,0817.7,5.00,0.00,25.9,25.1,00.0,35.0,27.8,10.5,0000.0,0003.19,0001.46,0001.03
2021-10-13 22:24:00,,0817.7,4.98,0.00,25.9,25.1,00.0,35.0,27.7,10.4,0000.0,0003.03,0001.40,0001.03
2021-10-13 22:25:00,,0817.7,5.00,0.00,25.9,25.1,00.0,35.0,27.8,10.4,0000.0,0003.05,0001.40,0001.03
2021-10-13 22:26:00,,0817.8,4.99,0.00,25.9,25.1,00.0,35.0,27.8,10.5,0000.0,0003.34,0001.36,0001.04
2021-10-13 22:27:00,,0817.7,5.00,0.00,26.0,25.1,00.0,35.0,27.7,10.6,0000.0,0004.08,0001.35,0001.04
2021-10-13 22:28:00,,0817.7,5.01,0.00,26.0,25.2,00.0,35.0,27.8,10.7,0000.0,0004.14,0001.37,0001.06
2021-10-13 22:29:00,,0817.7,4.98,0.00,26.0,25.2,00.0,35.0,27.8,10.6,0000.0,0004.12,0001.37,0001.06
2021-10-13 22:30:00,,0817.8,5.00,0.00,26.0,25.2,00.0,35.0,27.8,10.5,0000.0,0003.78,0001.38,0001.07
2021-10-13 22:31:00,,0817.7,5.01,0.00,26.0,25.2,00.0,35.0,27.8,10.6,0000.0,0003.24,0001.37,0001.07
2021-10-13 22:32:00,,0817.9,4.99,0.00,26.0,25.2,00.0,35.0,27.9,10.6,0000.0,0003.19,0001.37,0001.08
2021-10-13 22:33:00,,0817.8,5.00,0.00,26.0,25.2,00.0,35.1,27.8,10.7,0000.0,0003.09,0001.33,0001.07
2021-10-13 22:34:00,,0817.7,4.99,0.00,26.0,25.2,00.0,35.1,27.8,10.7,0000.0,0003.10,0001.34,0001.08
2021-10-13 22:35:00,,0817.8,5.01,0.00,26.0,25.2,00.0,35.1,27.8,10.6,0000.0,0003.22,0001.40,0001.09
2021-10-13 22:36:00,,0817.8,5.00,0.00,26.1,25.2,00.0,35.1,27.9,10.7,0000.0,0003.20,0001.40,0001.09
2021-10-13 22:37:00,,0817.8,5.00,0.00,26.1,25.2,00.0,35.1,27.9,10.7,0000.0,0003.11,0001.44,0001.09
2021-10-13 22:38:00,,0817.8,5.00,0.00,26.1,25.2,00.0,35.1,27.9,10.6,0000.0,0002.82,0001.44,0001.10
2021-10-13 22:39:00,,0817.9,4.99,0.00,26.1,25.2,00.0,35.1,27.9,10.6,0000.0,0002.81,0001.43,0001.09
2021-10-13 22:40:00,,0817.8,5.00,0.00,26.1,25.2,00.0,35.1,27.9,10.5,0000.0,0002.85,0001.43,0001.10
2021-10-13 22:41:00,,0817.9,5.01,0.00,26.1,25.2,00.0,35.1,27.9,10.4,0000.0,0002.84,0001.44,0001.11
2021-10-13 22:42:00,,0817.8,5.00,0.00,26.1,25.2,00.0,35.1,27.9,10.5,0000.0,0002.95,0001.47,0001.12
2021-10-13 22:43:00,,0817.8,4.99,0.00,26.1,25.2,00.0,35.1,27.9,10.4,0000.0,0003.40,0001.50,0001.12
2021-10-13 22:44:00,,0817.8,5.01,0.00,26.1,25.2,00.0,35.1,27.9,10.4,0000.0,0003.65,0001.52,0001.13
2021-10-13 22:45:00,,0818.0,5.00,0.00,26.1,25.2,00.0,35.1,27.9,10.4,0000.0,0003.84,0001.58,0001.14
2021-10-13 22:46:00,,0818.0,5.01,0.00,26.1,25.2,00.0,35.1,27.9,10.6,0000.0,0003.75,0001.54,0001.14
2021-10-13 22:47:00,,0818.0,5.00,0.00,26.1,25.2,00.0,35.1,27.9,10.5,0000.0,0003.82,0001.56,0001.15
2021-10-13 22:48:00,,0818.0,5.01,0.00,26.1,25.2,00.0,35.1,27.9,10.5,0000.0,0004.46,0001.57,0001.16
2021-10-13 22:49:00,,0817.9,5.00,0.00,26.1,25.2,00.0,35.1,27.9,10.4,0000.0,0004.78,0001.59,0001.17
2021-10-13 22:50:00,,0818.0,4.99,0.00,26.1,25.2,00.0,35.2,27.9,10.3,0000.0,0004.82,0001.61,0001.17
2021-10-13 22:51:00,,0817.9,4.99,0.00,26.1,25.3,00.0,35.2,27.9,10.4,0000.0,0004.75,0001.59,0001.17
2021-10-13 22:52:00,,0818.0,5.00,0.00,26.1,25.3,00.0,35.2,27.9,10.4,0000.0,0004.75,0001.59,0001.18
2021-10-13 22:53:00,,0818.0,4.99,0.00,26.1,25.3,00.0,35.2,27.9,10.4,0000.0,0004.71,0001.59,0001.19
2021-10-13 22:54:00,,0818.0,5.01,0.00,26.1,25.3,00.0,35.2,28.0,10.4,0000.0,0004.38,0001.58,0001.20
2021-10-13 22:55:00,,0818.0,4.98,0.00,26.1,25.3,00.0,35.2,28.0,10.5,0000.0,0004.16,0001.63,0001.21
2021-10-13 22:56:00,,0818.0,5.00,0.00,26.1,25.2,00.0,35.2,28.0,10.5,0000.0,0003.99,0001.58,0001.22
2021-10-13 22:57:00,,0818.0,5.00,0.00,26.1,25.2,00.0,35.2,27.9,10.5,0000.0,0004.05,0001.61,0001.22
2021-10-13 22:58:00,,0818.0,5.00,0.00,26.1,25.2,00.0,35.2,28.0,10.5,0000.0,0004.08,0001.62,0001.22
2021-10-13 22:59:00,,0818.0,5.01,0.00,26.1,25.2,00.0,35.2,27.9,10.4,0000.0,0003.87,0001.62,0001.22
